Ketchikan, AK

4:26 AM AKDT on August 15, 2018 (GMT -0800)
Ketchikan International

Weather History for PAKT - May, 2018

Change the Weather History Date:

Tuesday, May 1, 2018

  Actual Average Record
Temperature  
Mean Temperature 46 °F -  
Max Temperature 48 °F 53 °F 70 °F (1989)
Min Temperature 44 °F 39 °F 30 °F (1954)
Degree Days  
Heating Degree Days 19    
Moisture  
Dew Point 43 °F    
Average Humidity 89    
Maximum Humidity 100    
Minimum Humidity 76    
Precipitation  
Precipitation 0.01 in - - ()
Sea Level Pressure  
Sea Level Pressure 30.22 in    
Wind  
Wind Speed 3 mph (SE)    
Max Wind Speed 13 mph    
Max Gust Speed -    
Visibility 9 miles    
Events Rain    
Averages and records for this station are not official NWS values.
T = Trace of Precipitation, MM = Missing Value Source: NWS Daily Summary

Daily Weather History Graph

Daily Weather History Graph

Search for Another Location

Airport or City:

Astronomy

May. 01, 2018 Rise Set
Actual Time 5:04 AM AKDT 8:24 PM AKDT
Civil Twilight 4:21 AM AKDT 9:08 PM AKDT
Nautical Twilight 3:22 AM AKDT 10:07 PM AKDT
Astronomical Twilight 1:53 AM AKDT 11:40 PM AKDT
Moon 10:21 PM AKDT (5/1) 6:27 AM AKDT (5/1)
Length of Visible Light 16h 46m
Length of Day
15h 19m
Full, 97% of the Moon is Illuminated
May 1
Full
May 7
Last Quarter
May 15
New
May 21
First Quarter
May 29
Full

Hourly Weather History & Observations

Time (AKDT) Temp. Windchill Dew Point Humidity Pressure Visibility Wind Dir Wind Speed Gust Speed Precip Events Conditions
12:48 AM 46.4 °F - 41.0 °F 81% 30.25 in 10.0 mi Calm Calm - N/A   Overcast
12:53 AM 46.0 °F - 41.0 °F 83% 30.25 in 10.0 mi Calm Calm - N/A   Overcast
1:19 AM 46.0 °F - 41.0 °F 83% 30.24 in 10.0 mi Calm Calm - N/A   Overcast
1:53 AM 46.0 °F - 41.0 °F 83% 30.24 in 10.0 mi Calm Calm - N/A   Overcast
2:11 AM 46.0 °F - 41.0 °F 83% 30.24 in 10.0 mi Calm Calm - N/A   Overcast
2:53 AM 46.0 °F - 42.1 °F 86% 30.24 in 10.0 mi Calm Calm - N/A   Overcast
3:08 AM 46.0 °F - 42.1 °F 86% 30.24 in 10.0 mi Calm Calm - N/A   Overcast
3:17 AM 46.0 °F - 42.1 °F 86% 30.25 in 10.0 mi Calm Calm - N/A   Overcast
3:32 AM 46.0 °F - 43.0 °F 89% 30.25 in 10.0 mi Calm Calm - N/A   Overcast
3:44 AM 46.0 °F - 43.0 °F 89% 30.24 in 10.0 mi Calm Calm - N/A   Overcast
3:53 AM 46.0 °F 44.8 °F 43.0 °F 89% 30.24 in 10.0 mi ESE 3.5 mph - N/A   Overcast
4:35 AM 45.0 °F - 44.1 °F 97% 30.23 in 5.0 mi Calm Calm - 0.01 in Rain Light Rain
4:42 AM 45.0 °F - 44.1 °F 97% 30.23 in 5.0 mi Calm Calm - 0.01 in   Overcast
4:53 AM 45.0 °F - 43.0 °F 93% 30.24 in 10.0 mi Calm Calm - 0.01 in   Overcast
5:37 AM 45.0 °F - 43.0 °F 93% 30.24 in 10.0 mi Calm Calm - N/A   Overcast
5:46 AM 45.0 °F - 43.0 °F 93% 30.24 in 10.0 mi Calm Calm - N/A   Overcast
5:53 AM 45.0 °F - 43.0 °F 93% 30.25 in 10.0 mi Calm Calm - N/A   Overcast
6:03 AM 45.0 °F - 43.0 °F 93% 30.25 in 10.0 mi Calm Calm - N/A   Overcast
6:15 AM 44.6 °F - 44.6 °F 100% 30.25 in 10.0 mi Calm Calm - N/A   Overcast
6:53 AM 46.4 °F 45.2 °F 42.8 °F 87% 30.25 in 10.0 mi SE 3.5 mph - N/A   Overcast
7:53 AM 46.4 °F 44.3 °F 42.8 °F 87% 30.25 in 10.0 mi SE 4.6 mph - N/A   Overcast
8:53 AM 46.4 °F 42.9 °F 42.8 °F 87% 30.24 in 10.0 mi SE 6.9 mph - N/A   Overcast
9:53 AM 48.2 °F - 42.8 °F 82% 30.23 in 10.0 mi SE 8.1 mph - N/A   Mostly Cloudy
10:53 AM 48.2 °F - 42.8 °F 82% 30.22 in 10.0 mi ESE 11.5 mph - N/A   Overcast
11:53 AM 48.2 °F - 41.0 °F 76% 30.21 in 10.0 mi SE 11.5 mph - N/A   Overcast
12:53 PM 46.4 °F 41.1 °F 42.8 °F 87% 30.21 in 10.0 mi ESE 11.5 mph - N/A   Overcast
1:53 PM 48.2 °F - 42.8 °F 82% 30.19 in 5.0 mi ESE 12.7 mph - N/A Rain Light Rain
2:53 PM 46.4 °F 41.9 °F 44.6 °F 93% 30.21 in 8.0 mi ESE 9.2 mph - N/A   Overcast
3:53 PM 48.0 °F - 43.0 °F 83% 30.20 in 10.0 mi ESE 10.4 mph - N/A   Overcast
4:53 PM 48.0 °F - 44.1 °F 86% 30.19 in 8.0 mi SE 8.1 mph - N/A   Overcast
5:07 PM 46.9 °F - 45.0 °F 93% 30.18 in 8.0 mi SE 6.9 mph - N/A   Overcast
5:53 PM 46.9 °F - 45.0 °F 93% 30.18 in 3.0 mi SE 10.4 mph - 0.00 in   Overcast
6:53 PM 46.9 °F - 46.0 °F 97% 30.17 in 3.0 mi SE 10.4 mph - N/A   Overcast
7:53 PM 46.9 °F - 46.0 °F 97% 30.16 in 3.0 mi SE 10.4 mph - N/A   Overcast
8:53 PM 46.9 °F - 45.0 °F 93% 30.16 in 10.0 mi ESE 11.5 mph - N/A   Overcast
9:53 PM 46.9 °F - 44.1 °F 90% 30.14 in 10.0 mi SE 12.7 mph - N/A   Overcast
10:00 PM 46.9 °F - 44.1 °F 90% 30.14 in 10.0 mi SE 9.2 mph - N/A   Overcast
10:53 PM 46.9 °F - 44.1 °F 90% 30.13 in 10.0 mi SE 11.5 mph - N/A   Overcast
11:53 PM 46.9 °F - 44.1 °F 90% 30.14 in 10.0 mi SE 10.4 mph - N/A   Overcast